Weather History for Oklahoma City Wiley Post, OK

Change the Weather History Date:

Saturday, October 13, 2012

  Actual Average Record
Temperature  
Mean Temperature 68 °F -  
Max Temperature 77 °F 75 °F 91 °F (1954)
Min Temperature 62 °F 53 °F 39 °F (2006)
Cooling Degree Days 4    
Growing Degree Days 18 (Base 50)    
Moisture  
Dew Point 65 °F    
Average Humidity 84    
Maximum Humidity 94    
Minimum Humidity 49    
Precipitation  
Precipitation 0.44 in - - ()
Sea Level Pressure  
Sea Level Pressure 29.82 in    
Wind  
Wind Speed 21 mph (SSW)    
Max Wind Speed 29 mph    
Max Gust Speed 45 mph    
Visibility 7 miles    
Events Rain , Thunderstorm    
Averages and records for this station are not official NWS values.
T = Trace of Precipitation, MM = Missing Value Source: NWS Daily Summary

Daily Weather History Graph

Daily Weather History Graph

Search for Another Location

Airport:

Trip Planner

Search our weather history database for the weather conditions in past years. The results will help you decide how hot, cold, wet, or windy it might be!

Date:

Astronomy

Oct. 13, 2012 Rise Set
Actual Time 7:35 AM CDT 6:57 PM CDT
Civil Twilight 7:10 AM CDT 7:22 PM CDT
Nautical Twilight 6:40 AM CDT 7:52 PM CDT
Astronomical Twilight 6:10 AM CDT 8:21 PM CDT
Moon 5:30 AM CDT (10/13) 5:39 PM CDT (10/13)
Length of Visible Light 12h 12m
Length of Day
11h 21m
Waning Crescent, 5% of the Moon is Illuminated
Oct 13
Waning Crescent
Oct 15
New
Oct 21
First Quarter
Oct 29
Full
Nov 6
Last Quarter

Hourly Weather History & Observations

Time (CDT) Temp. Dew Point Humidity Pressure Visibility Wind Dir Wind Speed Gust Speed Precip Events Conditions
12:53 AM 73.0 °F 64.9 °F 76% 29.97 in 10.0 mi South 23.0 mph 31.1 mph N/A   Clear
1:53 AM 72.0 °F 64.9 °F 78% 29.95 in 9.0 mi South 21.9 mph 28.8 mph N/A   Clear
2:53 AM 71.1 °F 64.9 °F 81% 29.94 in 9.0 mi South 19.6 mph 25.3 mph N/A   Clear
3:53 AM 71.1 °F 64.9 °F 81% 29.95 in 9.0 mi South 16.1 mph - N/A   Clear
4:53 AM 71.1 °F 64.9 °F 81% 29.91 in 8.0 mi South 19.6 mph - N/A   Clear
5:53 AM 70.0 °F 64.9 °F 84% 29.90 in 8.0 mi South 19.6 mph 27.6 mph N/A   Clear
6:53 AM 70.0 °F 64.9 °F 84% 29.91 in 9.0 mi South 20.7 mph 26.5 mph N/A   Clear
7:53 AM 70.0 °F 64.9 °F 84% 29.90 in 8.0 mi South 19.6 mph 27.6 mph N/A   Clear
8:53 AM 71.1 °F 66.0 °F 84% 29.89 in 9.0 mi South 23.0 mph 32.2 mph N/A Thunderstorm Mostly Cloudy
9:35 AM 69.8 °F 66.2 °F 88% 29.91 in 8.0 mi South 23.0 mph 29.9 mph 0.01 in Thunderstorm Thunderstorm
9:53 AM 71.1 °F 66.9 °F 87% 29.88 in 8.0 mi South 24.2 mph - 0.01 in Thunderstorm Overcast
10:03 AM 71.6 °F 66.2 °F 83% 29.91 in 8.0 mi South 25.3 mph 32.2 mph 0.00 in Rain Light Rain
10:30 AM 71.6 °F 68.0 °F 88% 29.91 in 8.0 mi South 26.5 mph 32.2 mph 0.00 in   Overcast
10:43 AM 71.6 °F 66.2 °F 83% 29.91 in 8.0 mi South 20.7 mph 32.2 mph 0.00 in   Overcast
10:53 AM 71.1 °F 66.9 °F 87% 29.87 in 8.0 mi South 23.0 mph 32.2 mph 0.00 in   Overcast
11:53 AM 72.0 °F 68.0 °F 87% 29.85 in 8.0 mi South 20.7 mph - 0.01 in Rain , Thunderstorm Light Thunderstorms and Rain
12:06 PM 71.6 °F 68.0 °F 88% 29.88 in 3.0 mi South 18.4 mph - N/A Rain , Thunderstorm Thunderstorms and Rain
12:53 PM 69.1 °F 64.9 °F 87% 29.83 in 3.0 mi South 28.8 mph 44.9 mph N/A Rain , Thunderstorm Light Thunderstorms and Rain
1:02 PM 69.8 °F 66.2 °F 88% 29.86 in 3.0 mi South 23.0 mph 38.0 mph 0.00 in Rain , Thunderstorm Thunderstorms and Rain
1:19 PM 71.6 °F 68.0 °F 88% 29.85 in 3.0 mi South 18.4 mph 27.6 mph N/A Rain , Thunderstorm Light Rain
1:39 PM 73.4 °F 69.8 °F 88% 29.83 in 7.0 mi South 21.9 mph 29.9 mph N/A Rain Light Rain
1:53 PM 73.0 °F 69.1 °F 87% 29.78 in 10.0 mi South 19.6 mph 26.5 mph N/A   Mostly Cloudy
2:03 PM 75.2 °F 69.8 °F 83% 29.80 in 10.0 mi South 19.6 mph 29.9 mph 0.01 in   Mostly Cloudy
2:16 PM 75.2 °F 71.6 °F 89% 29.79 in 10.0 mi South 17.3 mph 28.8 mph 0.02 in   Overcast
2:29 PM 75.2 °F 69.8 °F 83% 29.79 in 10.0 mi South 21.9 mph 28.8 mph N/A   Mostly Cloudy
2:45 PM 75.2 °F 69.8 °F 83% 29.77 in 10.0 mi South 19.6 mph 27.6 mph N/A   Partly Cloudy
2:53 PM 75.9 °F 69.1 °F 79% 29.73 in 10.0 mi South 20.7 mph 27.6 mph 0.06 in   Partly Cloudy
3:18 PM 75.2 °F 69.8 °F 83% 29.76 in 10.0 mi South 17.3 mph 26.5 mph 0.02 in Thunderstorm Mostly Cloudy
3:37 PM 75.2 °F 69.8 °F 83% 29.78 in 10.0 mi South 13.8 mph - 0.03 in Thunderstorm Thunderstorm
3:53 PM 69.1 °F 63.0 °F 81% 29.76 in 4.0 mi West 19.6 mph 35.7 mph 0.04 in Rain , Thunderstorm Rain
3:59 PM 66.2 °F 60.8 °F 83% 29.79 in 3.0 mi WSW 18.4 mph 35.7 mph 0.01 in Rain , Thunderstorm Light Rain
4:14 PM 66.2 °F 62.6 °F 88% 29.79 in 1.0 mi WSW 23.0 mph 32.2 mph 0.02 in Rain Rain
4:18 PM 64.4 °F 62.6 °F 94% 29.77 in 0.8 mi SW 16.1 mph 29.9 mph 0.02 in Rain , Thunderstorm Heavy Thunderstorms and Rain
4:26 PM 66.2 °F 62.6 °F 88% 29.78 in 2.5 mi SW 17.3 mph 23.0 mph 0.03 in Rain , Thunderstorm Light Thunderstorms and Rain
4:33 PM 66.2 °F 62.6 °F 88% 29.76 in 3.0 mi SW 20.7 mph 34.5 mph 0.04 in Rain , Thunderstorm Heavy Thunderstorms and Rain
4:36 PM 66.2 °F 62.6 °F 88% 29.76 in 1.0 mi SSW 23.0 mph 34.5 mph N/A Rain , Thunderstorm Heavy Thunderstorms and Rain
4:45 PM 66.2 °F 64.4 °F 94% 29.76 in 3.0 mi South 19.6 mph 31.1 mph 0.06 in Rain , Thunderstorm Light Thunderstorms and Rain
4:53 PM 66.9 °F 63.0 °F 87% 29.73 in 3.0 mi South 26.5 mph 34.5 mph 0.07 in Rain , Thunderstorm Light Thunderstorms and Rain
5:10 PM 66.2 °F 62.6 °F 88% 29.74 in 1.0 mi SSW 28.8 mph 39.1 mph 0.03 in Rain , Thunderstorm Heavy Thunderstorms and Rain
5:49 PM 66.2 °F 62.6 °F 88% 29.71 in 4.0 mi South 18.4 mph 34.5 mph 0.09 in Rain , Thunderstorm Light Thunderstorms and Rain
5:53 PM 66.9 °F 63.0 °F 87% 29.67 in 4.0 mi SSW 19.6 mph 28.8 mph 0.09 in Rain , Thunderstorm Thunderstorms and Rain
6:17 PM 69.8 °F 64.4 °F 83% 29.72 in 10.0 mi South 19.6 mph - 0.04 in   Overcast
7:53 PM 71.1 °F 64.9 °F 81% 29.69 in 10.0 mi SSW 13.8 mph - 0.08 in   Scattered Clouds
8:53 PM 69.8 °F 66.2 °F 88% 29.74 in 10.0 mi SSW 8.1 mph - N/A   Clear
9:53 PM 68.0 °F 62.1 °F 81% 29.73 in 10.0 mi SW 9.2 mph - 0.08 in   Clear
10:53 PM 62.6 °F 53.6 °F 72% 29.75 in 10.0 mi WSW 8.1 mph - N/A   Clear
11:53 PM 64.4 °F 44.6 °F 49% 29.78 in 10.0 mi WNW 17.3 mph - N/A   Clear